TimeEDT,TemperatureF,Dew PointF,Humidity,Sea Level PressureIn,VisibilityMPH,Wind Direction,Wind SpeedMPH,Gust SpeedMPH,PrecipitationIn,Events,Conditions,WindDirDegrees,DateUTC
12:15 AM,73.4,71.6,94,29.95,10.0,Calm,Calm,-,N/A,,Overcast,0,2012-09-04 04:15:00
12:35 AM,71.6,71.6,100,29.95,10.0,Calm,Calm,-,N/A,,Overcast,0,2012-09-04 04:35:00
12:55 AM,71.6,71.6,100,29.94,10.0,South,3.5,-,N/A,,Overcast,190,2012-09-04 04:55:00
1:15 AM,71.6,71.6,100,29.94,10.0,Calm,Calm,-,N/A,,Scattered Clouds,0,2012-09-04 05:15:00
1:35 AM,71.6,69.8,94,29.93,10.0,SSW,3.5,-,N/A,,Scattered Clouds,200,2012-09-04 05:35:00
1:55 AM,69.8,69.8,100,29.93,10.0,Calm,Calm,-,N/A,,Mostly Cloudy,0,2012-09-04 05:55:00
2:15 AM,69.8,69.8,100,29.93,10.0,Calm,Calm,-,N/A,,Overcast,0,2012-09-04 06:15:00
2:35 AM,69.8,69.8,100,29.92,7.0,Calm,Calm,-,N/A,,Scattered Clouds,0,2012-09-04 06:35:00
2:55 AM,69.8,69.8,100,29.92,10.0,SSW,3.5,-,N/A,,Clear,210,2012-09-04 06:55:00
3:15 AM,69.8,69.8,100,29.92,2.5,Calm,Calm,-,N/A,,Scattered Clouds,0,2012-09-04 07:15:00
3:35 AM,69.8,69.8,100,29.92,7.0,Calm,Calm,-,N/A,,Scattered Clouds,0,2012-09-04 07:35:00
3:55 AM,69.8,69.8,100,29.92,10.0,SW,4.6,-,N/A,,Clear,220,2012-09-04 07:55:00
4:15 AM,69.8,69.8,100,29.92,2.5,SSW,3.5,-,N/A,,Scattered Clouds,210,2012-09-04 08:15:00
4:35 AM,69.8,69.8,100,29.92,10.0,Calm,Calm,-,N/A,,Overcast,0,2012-09-04 08:35:00
4:55 AM,69.8,69.8,100,29.92,10.0,South,4.6,-,N/A,,Mostly Cloudy,190,2012-09-04 08:55:00
5:15 AM,69.8,69.8,100,29.92,10.0,Calm,Calm,-,N/A,,Scattered Clouds,0,2012-09-04 09:15:00
5:55 AM,69.8,69.8,100,29.93,10.0,Calm,Calm,-,N/A,,Overcast,0,2012-09-04 09:55:00
6:15 AM,69.8,69.8,100,29.93,7.0,Calm,Calm,-,N/A,,Overcast,0,2012-09-04 10:15:00
6:35 AM,69.8,69.8,100,29.93,7.0,Calm,Calm,-,N/A,,Overcast,0,2012-09-04 10:35:00
6:55 AM,69.8,69.8,100,29.93,10.0,Calm,Calm,-,N/A,,Scattered Clouds,0,2012-09-04 10:55:00
7:15 AM,69.8,69.8,100,29.93,7.0,South,4.6,-,N/A,,Clear,170,2012-09-04 11:15:00
7:35 AM,69.8,69.8,100,29.94,7.0,Calm,Calm,-,N/A,,Clear,0,2012-09-04 11:35:00
7:55 AM,69.8,69.8,100,29.95,10.0,SSE,3.5,-,N/A,,Clear,150,2012-09-04 11:55:00
8:15 AM,69.8,69.8,100,29.95,10.0,SSE,4.6,-,N/A,,Clear,160,2012-09-04 12:15:00
8:35 AM,71.6,69.8,94,29.95,10.0,SSE,3.5,-,N/A,,Mostly Cloudy,160,2012-09-04 12:35:00
8:55 AM,71.6,69.8,94,29.94,7.0,Calm,Calm,-,N/A,,Overcast,0,2012-09-04 12:55:00
9:15 AM,71.6,69.8,94,29.95,5.0,Calm,Calm,-,N/A,,Overcast,0,2012-09-04 13:15:00
9:35 AM,73.4,71.6,94,29.95,5.0,Calm,Calm,-,N/A,,Overcast,0,2012-09-04 13:35:00
9:55 AM,73.4,69.8,88,29.95,2.5,SSW,4.6,-,N/A,,Overcast,200,2012-09-04 13:55:00
10:15 AM,73.4,69.8,88,29.96,10.0,WSW,4.6,-,N/A,,Overcast,240,2012-09-04 14:15:00
10:35 AM,73.4,69.8,88,29.96,5.0,SW,4.6,-,N/A,,Overcast,220,2012-09-04 14:35:00
10:55 AM,73.4,69.8,88,29.96,10.0,SSW,4.6,-,N/A,,Overcast,210,2012-09-04 14:55:00
11:15 AM,75.2,69.8,83,29.95,5.0,SW,4.6,-,N/A,,Haze,230,2012-09-04 15:15:00
11:35 AM,77.0,69.8,78,29.96,7.0,SW,3.5,-,N/A,,Overcast,220,2012-09-04 15:35:00
11:55 AM,77.0,69.8,78,29.96,10.0,WSW,5.8,-,N/A,,Overcast,250,2012-09-04 15:55:00
12:15 PM,77.0,71.6,83,29.96,10.0,West,4.6,-,N/A,,Overcast,280,2012-09-04 16:15:00
12:35 PM,78.8,71.6,78,29.96,10.0,West,4.6,-,N/A,,Overcast,270,2012-09-04 16:35:00
12:55 PM,80.6,71.6,74,29.95,10.0,West,4.6,-,N/A,,Overcast,260,2012-09-04 16:55:00
1:15 PM,80.6,71.6,74,29.95,10.0,WSW,5.8,-,N/A,,Overcast,240,2012-09-04 17:15:00
1:35 PM,80.6,68.0,65,29.93,5.0,SW,3.5,-,N/A,,Haze,230,2012-09-04 17:35:00
1:55 PM,82.4,69.8,66,29.93,7.0,SW,6.9,-,N/A,,Scattered Clouds,220,2012-09-04 17:55:00
2:15 PM,82.4,69.8,66,29.93,10.0,WSW,5.8,-,N/A,,Clear,240,2012-09-04 18:15:00
2:35 PM,84.2,68.0,58,29.93,10.0,WSW,4.6,-,N/A,,Scattered Clouds,240,2012-09-04 18:35:00
2:55 PM,84.2,69.8,62,29.92,10.0,Calm,Calm,-,N/A,,Mostly Cloudy,0,2012-09-04 18:55:00
3:15 PM,82.4,68.0,62,29.91,10.0,Calm,Calm,-,N/A,,Mostly Cloudy,0,2012-09-04 19:15:00
3:35 PM,86.0,69.8,58,29.90,10.0,NW,5.8,-,N/A,,Scattered Clouds,320,2012-09-04 19:35:00
3:55 PM,86.0,69.8,58,29.90,10.0,NW,5.8,-,N/A,,Clear,310,2012-09-04 19:55:00
4:15 PM,86.0,69.8,58,29.90,10.0,NW,5.8,-,N/A,,Scattered Clouds,310,2012-09-04 20:15:00
4:35 PM,86.0,69.8,58,29.89,10.0,WNW,3.5,-,N/A,,Mostly Cloudy,300,2012-09-04 20:35:00
4:55 PM,86.0,69.8,58,29.89,10.0,Calm,Calm,-,N/A,,Scattered Clouds,0,2012-09-04 20:55:00
5:15 PM,86.0,69.8,58,29.88,10.0,West,4.6,-,N/A,,Clear,280,2012-09-04 21:15:00
5:35 PM,86.0,69.8,58,29.89,10.0,NW,4.6,-,N/A,,Clear,320,2012-09-04 21:35:00
6:15 PM,84.2,69.8,62,29.89,10.0,NW,3.5,-,N/A,,Clear,310,2012-09-04 22:15:00
6:35 PM,84.2,69.8,62,29.89,10.0,NW,3.5,-,N/A,,Clear,320,2012-09-04 22:35:00
6:55 PM,82.4,69.8,66,29.90,10.0,Calm,Calm,-,N/A,,Clear,0,2012-09-04 22:55:00
7:15 PM,82.4,69.8,66,29.89,10.0,Calm,Calm,-,N/A,,Clear,0,2012-09-04 23:15:00
7:35 PM,80.6,69.8,70,29.89,10.0,Calm,Calm,-,N/A,,Clear,0,2012-09-04 23:35:00
7:55 PM,78.8,71.6,78,29.89,10.0,Calm,Calm,-,N/A,,Clear,0,2012-09-04 23:55:00
8:15 PM,77.0,71.6,83,29.89,10.0,Calm,Calm,-,N/A,,Clear,0,2012-09-05 00:15:00
8:35 PM,77.0,71.6,83,29.90,10.0,Calm,Calm,-,N/A,,Clear,0,2012-09-05 00:35:00
8:55 PM,75.2,71.6,89,29.90,10.0,Calm,Calm,-,N/A,,Clear,0,2012-09-05 00:55:00
9:15 PM,73.4,71.6,94,29.91,10.0,Calm,Calm,-,N/A,,Clear,0,2012-09-05 01:15:00
9:35 PM,73.4,71.6,94,29.91,10.0,Calm,Calm,-,N/A,,Clear,0,2012-09-05 01:35:00
9:55 PM,71.6,71.6,100,29.91,10.0,Calm,Calm,-,N/A,,Clear,0,2012-09-05 01:55:00
10:15 PM,71.6,71.6,100,29.91,10.0,Calm,Calm,-,N/A,,Clear,0,2012-09-05 02:15:00
10:35 PM,71.6,69.8,94,29.91,10.0,West,3.5,-,N/A,,Clear,260,2012-09-05 02:35:00
11:15 PM,71.6,69.8,94,29.91,10.0,WSW,3.5,-,N/A,,Clear,240,2012-09-05 03:15:00
11:35 PM,69.8,69.8,100,29.91,10.0,WSW,3.5,-,N/A,,Clear,240,2012-09-05 03:35:00
11:55 PM,69.8,69.8,100,29.91,10.0,SSW,4.6,-,N/A,,Clear,210,2012-09-05 03:55:00